Hawarden, United Kingdom

12:38 AM BST on March 27, 2017 (GMT +0100)
Hawarden

Weather History for EGNR - February, 2013

Change the Weather History Date:

Tuesday, February 5, 2013

  Actual Average (EGGP) Record (EGGP)
Temperature  
Mean Temperature 40 °F -  
Max Temperature 46 °F 46 °F 57 °F (2004)
Min Temperature 35 °F 36 °F 30 °F (2003)
Degree Days  
Heating Degree Days 24    
Moisture  
Dew Point 34 °F    
Average Humidity 78    
Maximum Humidity 93    
Minimum Humidity 44    
Precipitation  
Precipitation 0.16 in - - ()
Sea Level Pressure  
Sea Level Pressure 29.40 in    
Wind  
Wind Speed 15 mph ()    
Max Wind Speed 29 mph    
Max Gust Speed 40 mph    
Visibility 6.2 miles    
Events Rain    
Averages and records for this station are not official NWS values.
T = Trace of Precipitation, MM = Missing Value Source: Averaged Metar Reports

Daily Weather History Graph

Daily Weather History Graph

Search for Another Location

Airport or City:

Trip Planner

Search our weather history database for the weather conditions in past years. The results will help you decide how hot, cold, wet, or windy it might be!

Date:

Astronomy

Feb. 05, 2013 Rise Set
Actual Time 7:48 AM GMT 5:03 PM GMT
Civil Twilight 7:11 AM GMT 5:41 PM GMT
Nautical Twilight 6:30 AM GMT 6:22 PM GMT
Astronomical Twilight 5:49 AM GMT 7:02 PM GMT
Moon 3:30 AM GMT (2/5) 11:51 AM GMT (2/5)
Length of Visible Light 10h 29m
Length of Day
9h 15m
Waning Crescent, 29% of the Moon is Illuminated
Feb 5
Waning Crescent
Feb 10
New
Feb 17
First Quarter
Feb 25
Full
Mar 4
Last Quarter

Hourly Weather History & Observations

Time (GMT) Temp. Windchill Dew Point Humidity Pressure Visibility Wind Dir Wind Speed Gust Speed Precip Events Conditions
5:50 AM 37 °F - 26 °F 54% 29.51 in 22 mi West 11.5 mph - -   Unknown Precipitation
6:20 AM 35.6 °F 26.6 °F 28.4 °F 75% 29.50 in 6.2 mi West 13.8 mph - N/A   Partly Cloudy
6:50 AM 37.4 °F 29.8 °F 28.4 °F 70% 29.47 in 6.2 mi West 11.5 mph - N/A   Scattered Clouds
7:20 AM 35.6 °F 25.9 °F 28.4 °F 75% 29.47 in 6.2 mi West 16.1 mph 27.6 mph N/A   Scattered Clouds
7:50 AM 37.4 °F 29.8 °F 30.2 °F 75% 29.47 in 6.2 mi WNW 11.5 mph - N/A   Partly Cloudy
8:20 AM 35.6 °F 26.6 °F 30.2 °F 81% 29.47 in 6.2 mi West 13.8 mph 27.6 mph N/A   Scattered Clouds
8:50 AM 37 °F - 27 °F 55% 29.50 in 19 mi West 13.8 mph - -  
8:50 AM 35.6 °F 27.5 °F 30.2 °F 81% 29.47 in 6.2 mi West 11.5 mph 23.0 mph N/A   Partly Cloudy
9:20 AM 35.6 °F 26.2 °F 30.2 °F 81% 29.47 in 6.2 mi West 15.0 mph - N/A   Partly Cloudy
9:50 AM 39.2 °F 31.2 °F 30.2 °F 70% 29.47 in 6.2 mi WNW 13.8 mph - N/A   Partly Cloudy
10:20 AM 39.2 °F 30.5 °F 30.2 °F 70% 29.47 in 6.2 mi WNW 16.1 mph 28.8 mph N/A   Scattered Clouds
10:50 AM 41.0 °F 33.5 °F 32.0 °F 70% 29.47 in 6.2 mi WNW 13.8 mph 27.6 mph N/A   Partly Cloudy
11:20 AM 41.0 °F 32.8 °F 32.0 °F 70% 29.47 in 6.2 mi West 16.1 mph 27.6 mph N/A   Scattered Clouds
11:50 AM 40 °F - 26 °F 44% 29.47 in 22 mi West 15.0 mph - -   Partly Cloudy
11:50 AM 42.8 °F 34.5 °F 30.2 °F 61% 29.44 in 6.2 mi West 18.4 mph 38.0 mph N/A   Scattered Clouds
12:20 PM 41.0 °F 32.2 °F 30.2 °F 65% 29.42 in 6.2 mi West 18.4 mph - N/A   Partly Cloudy
12:50 PM 39.2 °F 29.6 °F 28.4 °F 65% 29.42 in 6.2 mi West 19.6 mph - N/A   Scattered Clouds
1:20 PM 37.4 °F 27.2 °F 33.8 °F 87% 29.39 in 2.8 mi West 19.6 mph 31.1 mph N/A   Scattered Clouds
1:50 PM 37.4 °F 27.2 °F 35.6 °F 93% 29.36 in 3.1 mi WSW 19.6 mph - N/A Rain Rain
2:20 PM 37.4 °F 25.9 °F 35.6 °F 93% 29.33 in 6.2 mi WSW 25.3 mph - N/A Rain Light Rain
2:50 PM 38 °F - 34 °F 81% 29.33 in 4 mi WSW 19.6 mph - - Rain Light Rain
2:50 PM 37.4 °F 26.4 °F 35.6 °F 93% 29.33 in 5.6 mi WSW 23.0 mph 34.5 mph N/A Rain Light Rain
3:20 PM 39.2 °F 28.5 °F 37.4 °F 93% 29.33 in 2.5 mi West 24.2 mph - N/A Rain Light Rain
3:50 PM 39.2 °F 30.5 °F 37.4 °F 93% 29.33 in 6.2 mi West 16.1 mph - N/A Rain Light Rain
4:20 PM 41.0 °F 33.5 °F 39.2 °F 93% 29.33 in 6.2 mi West 13.8 mph - N/A   Mostly Cloudy
4:50 PM 42.8 °F 34.3 °F 39.2 °F 87% 29.30 in 6.2 mi West 19.6 mph 31.1 mph N/A   Mostly Cloudy
5:20 PM 44.6 °F 37.2 °F 41.0 °F 87% 29.30 in 6.2 mi West 17.3 mph 287.7 mph N/A   Mostly Cloudy
5:50 PM 42 °F - 38 °F 81% 29.31 in 4 mi West 19.6 mph - - Rain Rain Showers
5:50 PM 42.8 °F 35.1 °F 39.2 °F 87% 29.30 in 5.6 mi WNW 16.1 mph - N/A Rain Light Rain
6:20 PM 42.8 °F 34.8 °F 41.0 °F 93% 29.30 in 6.2 mi NW 17.3 mph 28.8 mph N/A   Mostly Cloudy
6:50 PM 44.6 °F 35.7 °F 41.0 °F 87% 29.30 in 6.2 mi NW 24.2 mph 36.8 mph N/A Rain Light Rain
7:20 PM 44.6 °F 36.4 °F 39.2 °F 81% 29.30 in 6.2 mi NW 20.7 mph 36.8 mph N/A Rain Light Rain
7:50 PM 42.8 °F 33.1 °F 41.0 °F 93% 29.33 in 6.2 mi NW 25.3 mph 40.3 mph N/A Rain Light Rain
8:50 PM 45 °F - 39 °F 72% 29.37 in 7 mi NW 19.6 mph - -   Partly Cloudy
8:50 PM 46.4 °F 37.4 °F 42.8 °F 87% 29.36 in 6.2 mi NNW 28.8 mph - N/A   Mostly Cloudy
11:50 PM 44 °F - 37 °F 70% 29.46 in 7 mi NW 21.9 mph - - Rain Rain